Time,TemperatureF,DewpointF,PressureIn,WindDirection,WindDirectionDegrees,WindSpeedMPH,WindSpeedGustMPH,Humidity,HourlyPrecipIn,Conditions,Clouds,dailyrainin,SoftwareType,DateUTC
2013-02-09 00:01:00,25.3,23.6,29.76,NNW,336,6.0,14.0,93,0.07,,,0.00,Wunderground v.1.15,2013-02-09 05:01:00,
2013-02-09 00:03:00,25.2,23.5,29.76,NW,308,7.0,15.0,93,0.05,,,0.00,Wunderground v.1.15,2013-02-09 05:03:00,
2013-02-09 00:05:00,25.2,23.5,29.76,NNW,329,7.0,15.0,93,0.05,,,0.00,Wunderground v.1.15,2013-02-09 05:05:00,
2013-02-09 00:10:00,25.2,23.5,29.76,NNE,19,7.0,15.0,93,0.00,,,0.00,Wunderground v.1.15,2013-02-09 05:10:00,
2013-02-09 00:16:00,25.1,23.4,29.76,NNE,15,5.0,14.0,93,0.00,,,0.00,Wunderground v.1.15,2013-02-09 05:16:00,
2013-02-09 00:21:00,25.1,23.4,29.76,NE,44,5.0,14.0,93,0.00,,,0.00,Wunderground v.1.15,2013-02-09 05:21:00,
2013-02-09 00:26:00,25.0,23.3,29.77,North,360,6.0,14.0,93,0.00,,,0.00,Wunderground v.1.15,2013-02-09 05:26:00,
2013-02-09 00:31:00,24.9,23.2,29.77,NNW,336,7.0,14.0,93,0.00,,,0.00,Wunderground v.1.15,2013-02-09 05:31:00,
2013-02-09 00:36:00,24.8,23.1,29.77,NW,324,7.0,14.0,93,0.00,,,0.00,Wunderground v.1.15,2013-02-09 05:36:00,
2013-02-09 00:41:00,24.7,23.0,29.77,NNE,26,6.0,14.0,93,0.00,,,0.00,Wunderground v.1.15,2013-02-09 05:41:00,
2013-02-09 00:46:00,24.5,22.8,29.77,North,360,6.0,14.0,93,0.00,,,0.00,Wunderground v.1.15,2013-02-09 05:46:00,
2013-02-09 00:51:00,24.5,22.8,29.77,WNW,288,8.0,14.0,93,0.00,,,0.00,Wunderground v.1.15,2013-02-09 05:51:00,
2013-02-09 00:56:00,24.4,22.7,29.78,NW,321,8.0,14.0,93,0.00,,,0.00,Wunderground v.1.15,2013-02-09 05:56:00,
2013-02-09 01:01:00,24.3,22.6,29.78,NW,321,8.0,14.0,93,0.00,,,0.01,Wunderground v.1.15,2013-02-09 06:01:00,
2013-02-09 01:07:00,24.3,22.6,29.78,NW,321,7.0,14.0,93,0.00,,,0.01,Wunderground v.1.15,2013-02-09 06:07:00,
2013-02-09 01:12:00,24.2,22.5,29.78,WNW,290,7.0,14.0,93,0.04,,,0.02,Wunderground v.1.15,2013-02-09 06:12:00,
2013-02-09 01:17:00,24.1,22.4,29.78,North,360,6.0,14.0,93,0.04,,,0.02,Wunderground v.1.15,2013-02-09 06:17:00,
2013-02-09 01:22:00,24.1,22.4,29.79,SW,222,5.0,14.0,93,0.06,,,0.03,Wunderground v.1.15,2013-02-09 06:22:00,
2013-02-09 01:27:00,24.0,22.3,29.79,WNW,287,7.0,14.0,93,0.06,,,0.03,Wunderground v.1.15,2013-02-09 06:27:00,
2013-02-09 01:32:00,24.0,22.3,29.79,NNW,336,6.0,14.0,93,0.07,,,0.04,Wunderground v.1.15,2013-02-09 06:32:00,
2013-02-09 01:37:00,24.0,22.3,29.79,NW,324,5.0,16.0,93,0.09,,,0.05,Wunderground v.1.15,2013-02-09 06:37:00,
2013-02-09 01:42:00,24.0,22.3,29.79,WNW,296,5.0,14.0,93,0.09,,,0.05,Wunderground v.1.15,2013-02-09 06:42:00,
2013-02-09 01:47:00,24.0,22.3,29.80,WNW,298,4.0,14.0,93,0.05,,,0.05,Wunderground v.1.15,2013-02-09 06:47:00,
2013-02-09 01:52:00,23.9,22.2,29.79,NNW,334,6.0,14.0,93,0.04,,,0.06,Wunderground v.1.15,2013-02-09 06:52:00,
2013-02-09 01:58:00,23.9,22.2,29.80,WNW,299,5.0,14.0,93,0.04,,,0.06,Wunderground v.1.15,2013-02-09 06:58:00,
2013-02-09 02:03:00,24.0,22.3,29.80,NW,306,4.0,14.0,93,0.04,,,0.06,Wunderground v.1.15,2013-02-09 07:03:00,
2013-02-09 02:08:00,24.0,22.3,29.80,North,360,5.0,14.0,93,0.05,,,0.07,Wunderground v.1.15,2013-02-09 07:08:00,
2013-02-09 02:13:00,24.0,22.3,29.80,NE,42,5.0,14.0,93,0.05,,,0.07,Wunderground v.1.15,2013-02-09 07:13:00,
2013-02-09 02:18:00,24.0,22.3,29.80,NNW,336,4.0,14.0,93,0.04,,,0.07,Wunderground v.1.15,2013-02-09 07:18:00,
2013-02-09 02:23:00,24.0,22.3,29.79,NNW,331,4.0,14.0,93,0.00,,,0.07,Wunderground v.1.15,2013-02-09 07:23:00,
2013-02-09 02:28:00,24.1,22.4,29.79,NNE,17,4.0,14.0,93,0.00,,,0.07,Wunderground v.1.15,2013-02-09 07:28:00,
2013-02-09 02:33:00,24.2,22.5,29.79,NNW,333,4.0,14.0,93,0.00,,,0.07,Wunderground v.1.15,2013-02-09 07:33:00,
2013-02-09 02:38:00,24.2,22.5,29.79,WNW,298,4.0,14.0,93,0.00,,,0.07,Wunderground v.1.15,2013-02-09 07:38:00,
2013-02-09 02:43:00,24.2,22.5,29.79,NW,306,4.0,14.0,93,0.00,,,0.07,Wunderground v.1.15,2013-02-09 07:43:00,
2013-02-09 02:49:00,24.3,22.6,29.79,NNW,336,5.0,14.0,93,0.00,,,0.07,Wunderground v.1.15,2013-02-09 07:49:00,
2013-02-09 02:54:00,24.4,22.9,29.79,North,360,5.0,14.0,94,0.00,,,0.07,Wunderground v.1.15,2013-02-09 07:54:00,
2013-02-09 02:59:00,24.5,23.0,29.79,West,267,4.0,14.0,94,0.00,,,0.07,Wunderground v.1.15,2013-02-09 07:59:00,
2013-02-09 03:05:00,24.5,23.0,29.79,NNE,15,2.0,14.0,94,0.00,,,0.07,Wunderground v.1.15,2013-02-09 08:05:00,
2013-02-09 03:10:00,24.5,23.0,29.80,NNW,331,2.0,14.0,94,0.00,,,0.07,Wunderground v.1.15,2013-02-09 08:10:00,
2013-02-09 03:15:00,24.6,23.1,29.79,NNE,20,2.0,14.0,94,0.00,,,0.07,Wunderground v.1.15,2013-02-09 08:15:00,
2013-02-09 03:20:00,24.7,23.2,29.79,North,360,3.0,14.0,94,0.00,,,0.08,Wunderground v.1.15,2013-02-09 08:20:00,
2013-02-09 03:25:00,24.8,23.3,29.79,NW,317,5.0,14.0,94,0.00,,,0.08,Wunderground v.1.15,2013-02-09 08:25:00,
2013-02-09 03:31:00,24.9,23.4,29.79,NNW,336,6.0,10.0,94,0.00,,,0.08,Wunderground v.1.15,2013-02-09 08:31:00,
2013-02-09 03:36:00,24.9,23.4,29.79,North,5,5.0,14.0,94,0.04,,,0.09,Wunderground v.1.15,2013-02-09 08:36:00,
2013-02-09 03:41:00,24.9,23.2,29.79,NNW,336,5.0,14.0,93,0.04,,,0.09,Wunderground v.1.15,2013-02-09 08:41:00,
2013-02-09 03:46:00,24.9,23.2,29.80,North,360,7.0,14.0,93,0.04,,,0.09,Wunderground v.1.15,2013-02-09 08:46:00,
2013-02-09 03:51:00,24.9,23.2,29.80,NNE,12,6.0,12.0,93,0.04,,,0.09,Wunderground v.1.15,2013-02-09 08:51:00,
2013-02-09 03:56:00,24.9,23.2,29.79,North,5,6.0,14.0,93,0.00,,,0.09,Wunderground v.1.15,2013-02-09 08:56:00,
2013-02-09 04:01:00,24.9,22.9,29.80,North,360,6.0,17.0,92,0.00,,,0.10,Wunderground v.1.15,2013-02-09 09:01:00,
2013-02-09 04:06:00,24.8,23.1,29.80,NW,317,5.0,17.0,93,0.00,,,0.10,Wunderground v.1.15,2013-02-09 09:06:00,
2013-02-09 04:11:00,24.7,23.0,29.80,North,360,5.0,14.0,93,0.00,,,0.10,Wunderground v.1.15,2013-02-09 09:11:00,
2013-02-09 04:16:00,24.6,22.6,29.80,NW,323,6.0,18.0,92,0.00,,,0.10,Wunderground v.1.15,2013-02-09 09:16:00,
2013-02-09 04:22:00,24.4,22.4,29.81,NW,317,6.0,14.0,92,0.00,,,0.10,Wunderground v.1.15,2013-02-09 09:22:00,
2013-02-09 04:27:00,24.2,22.2,29.81,WNW,290,7.0,14.0,92,0.00,,,0.10,Wunderground v.1.15,2013-02-09 09:27:00,
2013-02-09 04:32:00,24.2,22.2,29.81,North,360,7.0,14.0,92,0.00,,,0.10,Wunderground v.1.15,2013-02-09 09:32:00,
2013-02-09 04:37:00,24.2,22.2,29.81,North,360,8.0,14.0,92,0.00,,,0.10,Wunderground v.1.15,2013-02-09 09:37:00,
2013-02-09 04:42:00,24.1,22.1,29.81,NNE,33,6.0,14.0,92,0.00,,,0.10,Wunderground v.1.15,2013-02-09 09:42:00,
2013-02-09 10:34:00,26.0,18.2,29.98,WNW,288,3.0,14.0,72,0.00,,,0.10,Wunderground v.1.15,2013-02-09 15:34:00,
2013-02-09 10:40:00,26.2,18.1,29.98,NNW,331,3.0,14.0,71,0.00,,,0.10,Wunderground v.1.15,2013-02-09 15:40:00,
2013-02-09 10:45:00,26.7,18.2,29.99,NNW,329,4.0,14.0,70,0.00,,,0.10,Wunderground v.1.15,2013-02-09 15:45:00,
2013-02-09 10:50:00,26.8,17.6,29.99,West,263,6.0,6.0,68,0.00,,,0.10,Wunderground v.1.15,2013-02-09 15:50:00,
2013-02-09 10:55:00,27.0,17.5,29.99,NNE,27,7.0,14.0,67,0.00,,,0.10,Wunderground v.1.15,2013-02-09 15:55:00,
2013-02-09 11:00:00,27.1,16.9,29.99,NNE,21,7.0,14.0,65,0.00,,,0.10,Wunderground v.1.15,2013-02-09 16:00:00,
2013-02-09 11:05:00,27.0,15.7,29.99,NE,55,9.0,14.0,62,0.00,,,0.10,Wunderground v.1.15,2013-02-09 16:05:00,
2013-02-09 11:10:00,27.0,16.8,30.00,NW,311,9.0,9.0,65,0.00,,,0.10,Wunderground v.1.15,2013-02-09 16:10:00,
2013-02-09 11:15:00,27.2,15.5,30.00,North,360,7.0,14.0,61,0.00,,,0.10,Wunderground v.1.15,2013-02-09 16:15:00,
2013-02-09 11:20:00,27.3,15.2,30.00,NE,43,7.0,14.0,60,0.00,,,0.10,Wunderground v.1.15,2013-02-09 16:20:00,
2013-02-09 11:25:00,27.4,16.8,30.00,NNW,334,7.0,14.0,64,0.00,,,0.10,Wunderground v.1.15,2013-02-09 16:25:00,
2013-02-09 11:30:00,27.5,15.8,30.01,WNW,300,8.0,14.0,61,0.00,,,0.10,Wunderground v.1.15,2013-02-09 16:30:00,
2013-02-09 11:35:00,27.6,16.3,30.01,NNE,21,7.0,24.0,62,0.00,,,0.10,Wunderground v.1.15,2013-02-09 16:35:00,
2013-02-09 11:40:00,27.5,13.8,30.01,NW,313,9.0,9.0,56,0.00,,,0.10,Wunderground v.1.15,2013-02-09 16:40:00,
2013-02-09 11:45:00,27.2,13.1,30.01,NW,308,10.0,14.0,55,0.00,,,0.10,Wunderground v.1.15,2013-02-09 16:45:00,
2013-02-09 11:51:00,27.3,13.2,30.00,NW,321,9.0,16.0,55,0.00,,,0.10,Wunderground v.1.15,2013-02-09 16:51:00,
2013-02-09 11:56:00,27.5,13.4,30.00,NW,318,10.0,19.0,55,0.00,,,0.11,Wunderground v.1.15,2013-02-09 16:56:00,
2013-02-09 12:01:00,27.7,12.3,30.01,NW,314,10.0,14.0,52,0.00,,,0.11,Wunderground v.1.15,2013-02-09 17:01:00,
2013-02-09 12:06:00,27.6,10.4,30.01,NNE,30,10.0,24.0,48,0.00,,,0.11,Wunderground v.1.15,2013-02-09 17:06:00,
2013-02-09 12:11:00,27.6,11.8,30.01,WNW,289,10.0,10.0,51,0.00,,,0.11,Wunderground v.1.15,2013-02-09 17:11:00,
2013-02-09 12:16:00,27.8,12.0,30.01,North,360,9.0,16.0,51,0.00,,,0.11,Wunderground v.1.15,2013-02-09 17:16:00,
2013-02-09 12:21:00,27.7,11.9,30.01,NW,321,11.0,15.0,51,0.00,,,0.11,Wunderground v.1.15,2013-02-09 17:21:00,
2013-02-09 12:26:00,27.6,10.4,30.02,NW,325,11.0,16.0,48,0.00,,,0.11,Wunderground v.1.15,2013-02-09 17:26:00,
2013-02-09 12:31:00,27.8,10.6,30.01,North,9,10.0,12.0,48,0.00,,,0.11,Wunderground v.1.15,2013-02-09 17:31:00,
2013-02-09 12:36:00,28.1,11.8,30.01,NNE,24,10.0,18.0,50,0.00,,,0.11,Wunderground v.1.15,2013-02-09 17:36:00,
2013-02-09 12:41:00,28.6,10.9,30.01,NW,313,10.0,14.0,47,0.00,,,0.11,Wunderground v.1.15,2013-02-09 17:41:00,
2013-02-09 12:46:00,29.0,11.7,30.02,NNW,330,9.0,14.0,48,0.00,,,0.11,Wunderground v.1.15,2013-02-09 17:46:00,
2013-02-09 12:51:00,29.4,12.1,30.02,NNW,336,8.0,14.0,48,0.00,,,0.11,Wunderground v.1.15,2013-02-09 17:51:00,
2013-02-09 12:57:00,29.7,11.9,30.02,NE,36,7.0,14.0,47,0.00,,,0.11,Wunderground v.1.15,2013-02-09 17:57:00,
2013-02-09 13:02:00,30.0,10.7,30.02,NE,44,5.0,14.0,44,0.00,,,0.11,Wunderground v.1.15,2013-02-09 18:02:00,
2013-02-09 13:07:00,30.0,10.7,30.02,North,360,6.0,14.0,44,0.00,,,0.11,Wunderground v.1.15,2013-02-09 18:07:00,
2013-02-09 13:13:00,30.1,9.7,30.02,North,360,6.0,14.0,42,0.00,,,0.11,Wunderground v.1.15,2013-02-09 18:13:00,
2013-02-09 13:18:00,30.3,12.0,30.02,North,360,5.0,14.0,46,0.00,,,0.11,Wunderground v.1.15,2013-02-09 18:18:00,
2013-02-09 13:23:00,30.3,11.0,30.03,WNW,297,5.0,14.0,44,0.00,,,0.11,Wunderground v.1.15,2013-02-09 18:23:00,
2013-02-09 13:28:00,30.2,10.9,30.03,NNW,335,7.0,14.0,44,0.00,,,0.11,Wunderground v.1.15,2013-02-09 18:28:00,
2013-02-09 13:33:00,30.3,9.9,30.03,NNW,333,7.0,11.0,42,0.00,,,0.11,Wunderground v.1.15,2013-02-09 18:33:00,
2013-02-09 13:39:00,29.9,9.6,30.02,ENE,69,6.0,14.0,42,0.00,,,0.11,Wunderground v.1.15,2013-02-09 18:39:00,
2013-02-09 13:44:00,29.9,11.1,30.03,NW,311,7.0,14.0,45,0.00,,,0.11,Wunderground v.1.15,2013-02-09 18:44:00,
2013-02-09 13:49:00,30.0,10.2,30.03,NNE,32,8.0,14.0,43,0.00,,,0.11,Wunderground v.1.15,2013-02-09 18:49:00,
2013-02-09 13:54:00,30.1,10.3,30.03,NW,323,7.0,14.0,43,0.00,,,0.11,Wunderground v.1.15,2013-02-09 18:54:00,
2013-02-09 13:59:00,30.2,8.7,30.04,NW,316,7.0,14.0,40,0.00,,,0.11,Wunderground v.1.15,2013-02-09 18:59:00,
2013-02-09 14:04:00,29.9,8.5,30.04,North,9,6.0,18.0,40,0.00,,,0.11,Wunderground v.1.15,2013-02-09 19:04:00,